Weather in Dvorichna

Ukraine / Kharkiv Region     49°51′03″N   37°40′20″E
temp.,
°C
wind,
m/s
gust,
m/s
humid.,
%
clouds,
%
prec.,
mm/h
press.,
hPa
HPBL,
m
17 june, thu
thu1700:00+18ne3586100 0.0 101373
03:00+17nne499262 0.0 1013165
06:00+18ne5129026 0.0 1013333
09:00+23ene71076100 0.0 1014778
12:00+26ene7965100 0.0 10151296
15:00+26ene7107064 0.7 10151459
18:00+24ne7117894 1.6 1015954
21:00+21ene7158796 2.4 1017643
18 june, fri
fri1800:00+19ene7159071 1.4 1018668
03:00+17ene71586100 2.0 1018508
06:00+17e51187100 0.0 1020574
09:00+17ene61187100 0.2 1021611
12:00+23e796098 0.1 10211229
15:00+21ese487296 0.1 1021654
18:00+21e377599 0.0 1021390
21:00+20ene5137514 0.0 1022473
19 june, sat
sat1900:00+18ene51384100 0.0 1022423
03:00+17ene6138197 0.0 1021434
06:00+16ene614822 0.0 1022458
09:00+20e813673 0.0 1022625
12:00+24e811590 0.0 10221014
15:00+25e810590 0.0 10211229
18:00+24e710690 0.0 1021955
21:00+19ene513800 0.0 1021343
20 june, sun
sun2000:00+18ene5147413 0.0 1021322
03:00+18ene6146466 0.0 1021358
06:00+16ene61474100 0.0 1021338
09:00+21e7146591 0.0 1020553
12:00+24e81155100 0.0 1020844
15:00+25ene71161100 0.0 1018809
18:00+23ene61469100 0.0 1018665
21:00+20ne5128055 0.0 1018271
21 june, mon
mon2100:00+21e616644 0.0 1017352
03:00+19e5136878 0.0 1016263
06:00+18e412755 0.0 1017222
09:00+25ese6145821 0.0 1017533
12:00+28ese7124621 0.0 1017949
15:00+27e51156100 0.0 1016967
18:00+27e6136097 0.0 1016563
21:00+22ene51474100 0.0 1016253